Wind_Speed
27 26 27 27 25 24 24 23 21 20 18 17 16 15 14 13 12 11 10 9 9 8 7 6 5 4 4 4 4 4 4 4 4 4 5 6 7 8 8 9 9 9 10
30 29 28 28 27 26 25 24 23 22 21 19 18 17 15 14 14 14 13 11 10 9 9 7 6 6 5 5 5 5 5 5 4 4 5 5 6 8 8 9 9 10 10
32 30 29 28 28 28 28 26 25 22 22 21 19 18 17 17 17 16 15 13 12 11 10 9 8 8 7 6 6 6 6 5 5 5 5 6 6 7 8 9 10 10 11
33 32 30 30 28 29 28 27 26 24 22 22 21 20 20 20 20 19 18 16 15 13 12 11 10 10 9 8 8 7 7 7 7 6 6 7 7 7 8 9 10 11 11
34 33 32 31 30 28 27 26 26 26 25 24 24 23 22 22 22 21 20 18 17 16 15 14 12 12 11 10 10 9 8 8 8 8 8 8 8 9 9 10 10 11 12
36 35 33 32 30 29 28 26 26 26 26 26 25 24 24 23 23 22 21 20 19 18 17 16 15 14 13 13 12 11 10 10 10 10 10 10 11 11 11 11 12 12 13
37 36 34 34 33 31 30 28 28 28 27 27 26 25 25 25 25 24 23 22 21 20 19 19 18 17 15 15 14 14 13 13 12 12 13 13 13 13 13 14 14 14 14
37 37 36 35 34 34 32 30 30 29 28 28 27 27 26 26 27 25 24 24 24 23 22 21 20 20 19 17 17 16 16 15 15 15 15 15 15 15 16 15 16 16 16
36 36 36 36 35 34 33 32 32 32 30 29 29 28 28 27 28 27 26 26 26 25 24 24 23 22 21 20 19 19 19 18 18 18 17 17 18 18 17 18 18 18 18
34 35 36 36 36 35 35 34 33 33 32 31 30 30 30 30 30 30 29 27 27 26 25 25 25 24 23 22 22 22 21 20 20 20 20 20 20 20 20 20 20 21 21
32 34 35 35 36 36 36 35 34 34 34 33 32 31 31 30 30 32 31 30 29 27 27 27 27 26 25 24 23 23 23 22 22 22 22 21 21 21 22 22 22 23 23
29 31 33 34 35 36 36 36 36 36 35 34 33 33 33 31 30 32 33 32 31 29 28 28 29 28 28 26 25 24 24 24 24 24 23 23 23 23 24 24 25 25 26
25 28 30 32 33 34 35 36 37 38 37 36 35 34 34 33 33 32 32 33 34 32 31 30 30 29 28 27 26 26 26 26 26 26 26 25 25 25 25 26 27 27 28
20 22 25 29 31 33 35 35 36 37 38 37 36 36 35 34 34 33 33 33 34 34 33 32 32 31 30 29 29 28 27 27 26 27 27 27 27 27 28 28 28 29 30
16 18 21 24 28 30 33 34 35 35 36 36 35 35 35 34 34 33 33 33 34 34 35 34 33 33 31 30 30 29 29 28 28 29 29 29 29 29 29 30 30 31 31
10 13 17 20 23 25 28 32 33 34 34 35 36 36 35 34 33 32 32 32 33 34 35 35 34 34 33 32 31 31 30 31 30 30 31 31 31 31 30 31 32 32 32
7 9 12 15 18 21 24 27 28 29 31 33 33 33 32 31 31 31 31 31 32 33 33 34 34 34 33 32 32 31 31 31 30 30 30 31 32 31 31 32 32 32 32
6 7 8 11 14 17 20 23 25 27 28 29 30 30 30 29 29 30 30 30 30 31 32 32 33 33 33 33 32 31 31 31 31 30 30 31 32 31 31 31 32 32 32
6 5 5 6 9 12 15 18 20 23 24 25 26 27 28 28 28 28 29 29 29 30 31 31 30 30 30 31 30 30 30 30 29 28 28 29 29 30 30 30 30 31 32
7 5 4 4 5 7 9 13 15 18 21 22 23 24 25 26 27 27 27 27 27 28 28 29 29 28 27 27 28 27 27 27 26 25 25 26 26 27 28 28 28 29 30
9 6 5 3 3 4 6 8 12 14 16 18 19 21 22 23 24 25 25 24 24 25 25 25 26 25 25 25 25 26 25 24 25 24 24 24 24 24 25 25 26 26 26
10 8 6 4 2 3 4 6 9 11 14 15 16 18 19 20 21 21 20 20 20 21 21 22 23 23 23 22 23 23 23 22 23 22 22 21 21 21 21 22 22 21 21
12 10 8 6 4 3 2 3 7 9 11 12 14 16 17 17 17 17 18 18 18 19 19 19 19 20 20 20 20 20 20 19 19 19 19 19 19 18 19 19 18 17 17
14 12 10 8 6 4 2 0 3 5 8 9 11 13 14 15 15 15 16 15 16 17 18 18 18 18 19 19 18 17 17 17 17 17 17 17 17 16 15 14 14 14 14
16 14 12 11 9 7 5 3 2 2 5 7 8 10 11 12 12 13 14 14 14 15 16 16 15 15 15 15 15 15 15 15 15 14 14 14 13 12 11 10 10 10 10
19 17 15 14 12 10 8 5 3 3 4 5 7 8 10 10 10 11 12 12 12 13 13 13 13 13 13 13 14 14 14 14 14 14 13 12 10 9 9 8 8 7 7
Wind_Direction
254 255 255 255 255 254 253 253 255 257 257 256 255 255 256 257 260 261 258 259 260 258 258 256 248 238 231 223 216 207 202 200 200 204 209 212 217 218 219 223 225 227 229
256 255 255 252 252 253 252 252 252 254 253 253 251 251 252 253 257 259 257 257 258 258 257 254 250 244 239 232 229 223 215 214 219 221 223 224 226 226 229 233 234 236 238
256 255 255 253 254 253 253 254 251 252 249 250 249 250 252 252 253 255 254 254 255 255 254 252 251 249 246 243 240 236 231 232 237 238 238 239 239 236 239 241 243 247 250
256 256 257 256 255 252 252 253 249 249 248 247 248 248 247 247 247 249 250 250 250 251 250 250 251 251 248 246 246 247 246 248 251 253 252 253 257 255 253 253 256 258 260
256 255 255 256 256 252 250 249 248 248 248 247 247 248 247 245 244 245 247 246 246 246 247 248 251 252 250 249 250 251 254 255 258 259 261 263 267 268 266 265 267 267 267
254 254 253 253 252 248 248 248 247 244 244 247 248 248 247 244 242 242 244 244 244 244 245 246 249 251 251 252 253 252 253 256 259 262 264 268 270 272 273 273 274 275 275
250 250 250 249 248 245 245 247 246 243 244 246 245 245 245 243 242 241 240 242 244 244 244 246 247 250 251 252 254 254 255 256 259 262 264 267 271 274 276 277 276 278 280
248 247 246 246 246 244 242 244 242 241 242 244 244 245 245 242 241 239 240 241 242 242 243 245 246 249 250 252 253 255 256 257 260 262 265 267 270 272 274 277 278 278 280
246 245 244 243 242 242 241 241 241 241 242 242 243 244 242 240 240 239 239 240 240 242 241 243 245 248 250 250 252 254 256 257 259 262 265 267 269 271 274 276 277 279 281
245 243 242 241 240 238 238 237 237 238 239 240 241 242 242 241 241 239 239 240 240 240 240 241 243 246 247 249 251 254 256 258 260 262 264 265 267 270 273 275 276 278 281
246 244 242 240 238 237 235 234 234 235 236 236 237 237 238 239 240 238 238 238 238 239 239 239 242 244 246 247 250 253 255 257 260 262 264 265 266 268 270 272 274 277 279
246 243 241 239 237 235 233 232 232 232 233 234 234 235 236 237 239 238 238 236 236 238 239 239 240 242 245 248 249 251 254 257 260 262 265 266 267 269 270 271 274 276 278
246 244 241 239 236 234 232 230 230 231 231 231 232 234 236 237 238 239 238 236 236 237 238 239 239 239 241 244 247 251 255 258 260 262 265 267 269 270 272 274 274 276 278
248 246 243 239 237 234 232 232 231 231 230 229 231 233 235 237 239 238 236 236 235 235 236 237 237 237 239 243 246 250 252 254 257 260 262 265 268 271 274 275 275 276 278
251 247 243 240 237 234 233 232 231 231 229 229 229 231 233 234 238 237 236 236 236 236 236 237 239 238 237 241 244 246 249 251 255 258 262 265 268 270 273 275 276 277 279
258 250 244 240 235 233 233 231 232 232 231 230 231 232 232 234 235 235 235 236 234 234 235 236 238 239 238 240 243 246 249 253 256 259 262 265 268 270 272 274 276 278 278
273 263 251 240 235 234 233 232 231 230 229 229 229 231 233 232 232 232 232 233 233 233 234 236 239 240 241 244 245 248 251 255 255 259 263 266 268 270 272 274 276 277 278
302 277 263 248 239 236 234 233 231 230 228 228 229 231 234 233 233 232 232 234 234 234 235 238 240 243 244 245 247 251 253 255 258 260 263 266 269 268 270 272 274 276 277
337 312 281 262 248 237 235 231 232 231 228 228 230 230 231 233 232 233 233 233 234 234 235 238 239 241 244 245 248 251 253 256 259 262 263 265 266 267 269 271 273 275 275
5 352 327 289 267 254 244 236 234 233 230 229 227 227 229 229 229 231 233 234 233 234 234 236 237 240 244 246 248 251 254 257 258 260 263 265 268 268 268 270 272 274 275
12 9 1 338 288 259 244 236 229 229 228 228 227 225 229 230 228 229 231 231 231 232 235 237 237 239 242 245 247 251 255 257 256 258 262 264 267 268 269 272 274 274 274
15 15 13 2 330 278 261 238 228 228 226 227 226 225 228 230 230 230 230 230 231 233 235 237 239 241 242 245 248 250 252 254 255 256 259 262 265 268 270 272 274 274 273
23 24 23 22 16 354 307 237 222 223 224 224 223 223 224 226 227 230 232 233 233 231 231 234 236 239 241 244 247 249 249 250 251 253 254 259 261 264 268 270 271 275 276
30 30 27 27 25 23 16 223 201 211 211 208 211 214 214 216 221 224 224 228 230 228 230 232 235 237 238 239 240 241 239 239 242 247 250 253 257 262 264 267 271 275 277
35 35 36 36 37 38 42 61 131 166 189 195 201 201 205 212 214 213 215 220 224 226 228 228 230 230 230 229 228 230 230 233 237 242 246 248 251 254 258 264 272 279 282
39 39 39 40 41 44 48 57 93 119 151 173 182 190 195 199 201 206 205 210 215 218 219 219 219 219 220 220 218 221 225 229 234 237 239 241 244 249 259 266 276 282 285
Height
5883 5883 5883 5884 5886 5887 5888 5889 5890 5891 5892 5893 5894 5895 5896 5896 5896 5897 5898 5898 5898 5898 5899 5899 5899 5899 5900 5900 5900 5901 5901 5902 5902 5903 5904 5904 5905 5906 5907 5908 5908 5909 5909
5876 5877 5878 5878 5880 5881 5882 5884 5885 5886 5888 5889 5890 5891 5892 5893 5893 5895 5895 5896 5897 5897 5897 5898 5898 5898 5899 5899 5900 5900 5901 5901 5902 5903 5903 5904 5904 5905 5906 5907 5907 5908 5908
5868 5870 5871 5872 5873 5875 5876 5878 5879 5881 5882 5884 5886 5887 5888 5889 5890 5891 5892 5894 5894 5895 5896 5896 5897 5897 5898 5898 5899 5899 5900 5901 5901 5902 5902 5903 5904 5904 5905 5905 5906 5906 5907
5860 5862 5864 5865 5866 5868 5869 5871 5873 5875 5877 5879 5881 5883 5884 5885 5887 5888 5889 5890 5891 5893 5893 5894 5895 5896 5896 5897 5898 5898 5899 5899 5900 5901 5901 5902 5902 5903 5903 5903 5904 5904 5905
5851 5853 5856 5857 5859 5861 5862 5864 5867 5869 5871 5873 5875 5877 5879 5881 5882 5883 5885 5886 5888 5889 5890 5892 5893 5893 5894 5895 5896 5896 5897 5898 5898 5899 5899 5900 5900 5901 5901 5902 5902 5902 5902
5841 5844 5847 5849 5851 5853 5856 5858 5860 5862 5865 5867 5869 5871 5873 5875 5877 5879 5880 5882 5884 5885 5887 5888 5890 5891 5892 5893 5893 5894 5895 5896 5896 5897 5897 5898 5898 5899 5899 5899 5899 5900 5900
5831 5834 5837 5840 5842 5845 5848 5851 5853 5855 5858 5860 5862 5865 5867 5869 5872 5874 5876 5877 5879 5881 5883 5884 5886 5887 5888 5889 5890 5891 5892 5893 5893 5894 5894 5895 5896 5896 5896 5896 5896 5896 5896
5819 5823 5827 5830 5833 5836 5840 5842 5845 5848 5850 5853 5856 5858 5860 5863 5865 5868 5870 5872 5874 5876 5878 5880 5882 5883 5884 5886 5887 5888 5889 5889 5890 5891 5891 5892 5892 5892 5893 5893 5893 5893 5893
5809 5813 5816 5820 5823 5827 5830 5833 5837 5840 5843 5846 5849 5852 5854 5857 5859 5862 5864 5867 5869 5871 5873 5875 5877 5878 5879 5881 5882 5883 5884 5885 5886 5887 5887 5888 5888 5889 5889 5889 5889 5889 5889
5799 5802 5806 5809 5813 5817 5821 5824 5828 5831 5835 5838 5841 5844 5847 5850 5853 5856 5858 5861 5863 5865 5867 5869 5871 5873 5874 5876 5877 5878 5879 5880 5881 5882 5883 5883 5884 5884 5885 5885 5885 5885 5884
5789 5792 5796 5799 5803 5807 5811 5815 5818 5822 5826 5830 5833 5836 5839 5842 5845 5848 5851 5854 5857 5859 5861 5863 5865 5867 5869 5870 5871 5873 5874 5875 5876 5877 5878 5878 5879 5879 5879 5880 5880 5880 5879
5779 5782 5786 5789 5793 5797 5801 5805 5809 5813 5817 5821 5824 5827 5831 5834 5837 5840 5843 5846 5849 5852 5855 5857 5859 5861 5863 5864 5865 5867 5868 5869 5871 5872 5872 5873 5873 5874 5874 5874 5874 5874 5874
5771 5773 5776 5780 5783 5787 5791 5795 5799 5804 5808 5812 5816 5819 5823 5826 5829 5832 5835 5838 5842 5845 5848 5850 5853 5855 5856 5858 5859 5861 5862 5864 5865 5866 5866 5867 5867 5868 5868 5868 5868 5868 5867
5764 5766 5768 5771 5774 5778 5782 5786 5790 5794 5798 5802 5806 5810 5814 5818 5821 5824 5827 5831 5834 5837 5840 5843 5846 5848 5850 5852 5853 5855 5856 5857 5859 5859 5860 5861 5861 5861 5862 5862 5862 5861 5861
5759 5760 5761 5763 5766 5770 5774 5778 5782 5785 5790 5794 5798 5802 5806 5809 5813 5816 5819 5822 5826 5829 5832 5835 5838 5841 5843 5845 5847 5849 5850 5851 5852 5853 5854 5854 5855 5855 5855 5855 5854 5854 5853
5755 5755 5756 5757 5760 5762 5766 5769 5773 5777 5781 5785 5789 5793 5797 5800 5804 5807 5810 5813 5817 5821 5824 5828 5831 5833 5836 5838 5840 5842 5843 5845 5846 5847 5847 5848 5848 5848 5848 5847 5847 5846 5845
5752 5752 5752 5753 5754 5757 5759 5762 5766 5770 5774 5778 5781 5785 5789 5793 5796 5799 5803 5806 5809 5813 5816 5819 5823 5825 5828 5831 5833 5834 5836 5837 5838 5839 5840 5841 5841 5840 5840 5840 5839 5838 5837
5750 5750 5750 5750 5751 5752 5755 5757 5760 5764 5767 5770 5774 5778 5781 5785 5789 5792 5795 5798 5801 5805 5808 5812 5815 5818 5820 5823 5825 5827 5828 5830 5831 5832 5832 5833 5833 5833 5832 5832 5832 5831 5830
5749 5748 5747 5747 5748 5749 5750 5752 5755 5757 5760 5764 5768 5772 5775 5779 5782 5786 5789 5792 5795 5798 5801 5804 5807 5810 5813 5815 5818 5820 5821 5822 5823 5824 5825 5825 5825 5825 5825 5824 5824 5823 5822
5749 5747 5746 5746 5746 5746 5747 5748 5750 5752 5755 5758 5762 5766 5769 5772 5776 5779 5782 5785 5788 5791 5794 5798 5801 5803 5806 5808 5810 5812 5814 5815 5816 5817 5818 5818 5818 5818 5818 5817 5817 5815 5814
5749 5747 5746 5745 5745 5745 5745 5745 5747 5749 5751 5754 5757 5760 5763 5766 5770 5773 5776 5779 5782 5785 5788 5791 5794 5797 5800 5802 5804 5806 5807 5808 5809 5810 5811 5811 5811 5811 5811 5810 5809 5808 5807
5749 5747 5745 5744 5744 5743 5743 5743 5744 5746 5748 5750 5753 5756 5759 5762 5765 5768 5771 5774 5777 5780 5783 5786 5789 5791 5794 5796 5798 5800 5801 5802 5803 5805 5805 5806 5806 5805 5805 5804 5803 5801 5801
5750 5747 5746 5744 5743 5743 5742 5741 5742 5744 5745 5747 5749 5752 5755 5758 5760 5763 5766 5769 5772 5775 5778 5781 5783 5786 5788 5790 5792 5794 5795 5797 5798 5799 5800 5800 5801 5800 5800 5799 5797 5796 5795
5752 5749 5747 5745 5744 5742 5741 5741 5741 5742 5743 5745 5746 5749 5752 5755 5757 5760 5763 5766 5768 5771 5774 5776 5779 5781 5783 5785 5787 5789 5790 5792 5793 5794 5795 5796 5796 5796 5795 5795 5794 5792 5792
5755 5751 5748 5746 5744 5743 5741 5741 5741 5741 5742 5743 5745 5748 5750 5753 5755 5758 5760 5763 5765 5767 5770 5772 5775 5777 5778 5780 5782 5785 5786 5788 5789 5790 5791 5792 5792 5792 5792 5792 5791 5790 5789
5758 5754 5751 5748 5746 5744 5742 5741 5741 5741 5742 5743 5744 5746 5749 5751 5753 5756 5758 5760 5762 5764 5767 5769 5771 5773 5775 5777 5779 5782 5783 5785 5786 5787 5788 5789 5789 5789 5789 5789 5788 5787 5786